This demonstration page uses our WeatherBlox Daily Observations layout. Learn more.

Left ArrowRight Arrow

34.74481, -87.66753

Hourly Observations for February 23, 2021

Temp ( °F °C ) Dew Point ( °F °C ) Humidity (%) Winds ( mph kmh ) Pressure ( in mb ) Visibility ( mi km ) Precip ( " mm )
12:53 am 00:53 Clear 37 2.8 29 -1.7 73 73 SSW 3 6 30.09 1019 10 16 0.00 0.00
1:53 am 01:53 Clear 37 2.8 28 -2.2 70 70 WSW 3 6 30.08 1019 10 16 0.00 0.00
2:53 am 02:53 Clear 36 2.2 27 -2.8 70 70 SW 6 9 30.05 1018 10 16 0.00 0.00
3:53 am 03:53 Clear 40 4.4 26 -3.3 58 58 WSW 7 11 30.05 1018 10 16 0.00 0.00
4:53 am 04:53 Clear 42 5.6 26 -3.3 53 53 WSW 8 13 30.06 1018 10 16 0.00 0.00
5:53 am 05:53 Clear 42 5.6 25 -3.9 51 51 WSW 7 11 30.08 1019 10 16 0.00 0.00
6:53 am 06:53 Sunny 42 5.6 26 -3.3 53 53 WSW 6 9 30.09 1019 10 16 0.00 0.00
7:53 am 07:53 Sunny 48 8.9 31 -0.6 52 52 W 7 11 30.11 1020 10 16 0.00 0.00
8:53 am 08:53 Sunny 57 13.9 30 -1.1 36 36 W 10 17 30.11 1020 10 16 0.00 0.00
9:53 am 09:53 Sunny 60 15.6 30 -1.1 32 32 W 15 24 30.10 1019 10 16 0.00 0.00
10:53 am 10:53 Sunny 64 17.8 32 0 30 30 WNW 9 15 30.09 1019 10 16 0.00 0.00
11:53 am 11:53 Sunny 65 18.3 32 0 29 29 NW 13 20 30.07 1018 10 16 0.00 0.00
12:53 pm 12:53 Sunny 68 20 32 0 26 26 W 10 17 30.04 1017 10 16 0.00 0.00
1:53 pm 13:53 Sunny 71 21.7 32 0 24 24 WNW 10 17 30.02 1017 10 16 0.00 0.00
2:53 pm 14:53 Sunny 72 22.2 32 0 23 23 WNW 9 15 30.01 1016 10 16 0.00 0.00
3:53 pm 15:53 Sunny 72 22.2 32 0 23 23 W 7 11 30.01 1016 10 16 0.00 0.00
4:53 pm 16:53 Sunny 69 20.6 34 1.1 27 27 SW 12 19 30.00 1016 10 16 0.00 0.00
5:53 pm 17:53 Clear 65 18.3 31 -0.6 28 28 SW 5 7 30.01 1016 10 16 0.00 0.00
6:53 pm 18:53 Clear 61 16.1 31 -0.6 32 32 SW 7 11 30.03 1017 10 16 0.00 0.00
7:53 pm 19:53 Clear 59 15 31 -0.6 35 35 SW 6 9 30.03 1017 10 16 0.00 0.00
8:53 pm 20:53 Clear 51 10.6 33 0.6 50 50 S 5 7 30.03 1017 10 16 0.00 0.00
9:53 pm 21:53 Clear 50 10 32 0 50 50 Calm 30.03 1017 10 16 0.00 0.00
10:53 pm 22:53 Clear 48 8.9 33 0.6 56 56 SSE 3 6 30.03 1017 10 16 0.00 0.00
11:53 pm 23:53 Clear 45 7.2 33 0.6 63 63 Calm 30.03 1017 10 16 0.00 0.00

Powered by AerisWeather